Year,Month,Day,Hour,Minute,Value (Times are PST for temperature in C)
2017,07,05,00,00,15.30
2017,07,05,00,01,15.20
2017,07,05,00,02,15.20
2017,07,05,00,03,15.20
2017,07,05,00,04,15.20
2017,07,05,00,05,15.20
2017,07,05,00,06,15.10
2017,07,05,00,07,15.10
2017,07,05,00,08,15.10
2017,07,05,00,09,15.10
2017,07,05,00,10,15.00
2017,07,05,00,11,15.00
2017,07,05,00,12,15.00
2017,07,05,00,13,15.00
2017,07,05,00,14,15.00
2017,07,05,00,15,15.00
2017,07,05,00,16,15.00
2017,07,05,00,17,15.00
2017,07,05,00,18,15.00
2017,07,05,00,19,15.00
2017,07,05,00,20,15.00
2017,07,05,00,21,15.00
2017,07,05,00,22,15.00
2017,07,05,00,23,15.00
2017,07,05,00,24,14.90
2017,07,05,00,25,14.90
2017,07,05,00,26,14.90
2017,07,05,00,27,14.80
2017,07,05,00,28,14.80
2017,07,05,00,29,14.80
2017,07,05,00,30,14.80
2017,07,05,00,31,14.80
2017,07,05,00,32,14.80
2017,07,05,00,33,14.80
2017,07,05,00,34,14.70
2017,07,05,00,35,14.70
2017,07,05,00,36,14.70
2017,07,05,00,37,14.70
2017,07,05,00,38,14.70
2017,07,05,00,39,14.60
2017,07,05,00,40,14.60
2017,07,05,00,41,14.60
2017,07,05,00,42,14.50
2017,07,05,00,43,14.50
2017,07,05,00,44,14.40
2017,07,05,00,45,14.40
2017,07,05,00,46,14.40
2017,07,05,00,47,14.30
2017,07,05,00,48,14.30
2017,07,05,00,49,14.30
2017,07,05,00,50,14.30
2017,07,05,00,51,14.30
2017,07,05,00,52,14.20
2017,07,05,00,53,14.20
2017,07,05,00,54,14.20
2017,07,05,00,55,14.20
2017,07,05,00,56,14.20
2017,07,05,00,57,14.20
2017,07,05,00,58,14.20
2017,07,05,00,59,14.20
2017,07,05,01,00,14.10
2017,07,05,01,01,14.10
2017,07,05,01,02,14.10
2017,07,05,01,03,14.10
2017,07,05,01,04,14.10
2017,07,05,01,05,14.10
2017,07,05,01,06,14.10
2017,07,05,01,07,14.10
2017,07,05,01,08,14.10
2017,07,05,01,09,14.00
2017,07,05,01,10,14.00
2017,07,05,01,11,14.00
2017,07,05,01,12,14.00
2017,07,05,01,13,14.00
2017,07,05,01,14,13.90
2017,07,05,01,15,13.90
2017,07,05,01,16,13.90
2017,07,05,01,17,13.90
2017,07,05,01,18,13.90
2017,07,05,01,19,13.90
2017,07,05,01,20,13.80
2017,07,05,01,21,13.80
2017,07,05,01,22,13.80
2017,07,05,01,23,13.80
2017,07,05,01,24,13.80
2017,07,05,01,25,13.80
2017,07,05,01,26,13.80
2017,07,05,01,27,13.70
2017,07,05,01,28,13.70
2017,07,05,01,29,13.70
2017,07,05,01,30,13.70
2017,07,05,01,31,13.70
2017,07,05,01,32,13.60
2017,07,05,01,33,13.60
2017,07,05,01,34,13.60
2017,07,05,01,35,13.60
2017,07,05,01,36,13.60
2017,07,05,01,37,13.60
2017,07,05,01,38,13.50
2017,07,05,01,39,13.50
2017,07,05,01,40,13.50
2017,07,05,01,41,13.50
2017,07,05,01,42,13.50
2017,07,05,01,43,13.40
2017,07,05,01,44,13.40
2017,07,05,01,45,13.40
2017,07,05,01,46,13.40
2017,07,05,01,47,13.40
2017,07,05,01,48,13.40
2017,07,05,01,49,13.30
2017,07,05,01,50,13.30
2017,07,05,01,51,13.30
2017,07,05,01,52,13.30
2017,07,05,01,53,13.30
2017,07,05,01,54,13.30
2017,07,05,01,55,13.30
2017,07,05,01,56,13.30
2017,07,05,01,57,13.30
2017,07,05,01,58,13.30
2017,07,05,01,59,13.30
2017,07,05,02,00,13.30
2017,07,05,02,01,13.30
2017,07,05,02,02,13.30
2017,07,05,02,03,13.30
2017,07,05,02,04,13.30
2017,07,05,02,05,13.20
2017,07,05,02,06,13.20
2017,07,05,02,07,13.20
2017,07,05,02,08,13.20
2017,07,05,02,09,13.10
2017,07,05,02,10,13.10
2017,07,05,02,11,13.10
2017,07,05,02,12,13.10
2017,07,05,02,13,13.10
2017,07,05,02,14,13.10
2017,07,05,02,15,13.00
2017,07,05,02,16,13.00
2017,07,05,02,17,13.00
2017,07,05,02,18,13.00
2017,07,05,02,19,13.00
2017,07,05,02,20,13.00
2017,07,05,02,21,12.90
2017,07,05,02,22,12.90
2017,07,05,02,23,12.90
2017,07,05,02,24,12.90
2017,07,05,02,25,12.80
2017,07,05,02,26,12.80
2017,07,05,02,27,12.80
2017,07,05,02,28,12.80
2017,07,05,02,29,12.80
2017,07,05,02,30,12.80
2017,07,05,02,31,12.70
2017,07,05,02,32,12.70
2017,07,05,02,33,12.70
2017,07,05,02,34,12.70
2017,07,05,02,35,12.70
2017,07,05,02,36,12.70
2017,07,05,02,37,12.60
2017,07,05,02,38,12.60
2017,07,05,02,39,12.60
2017,07,05,02,40,12.60
2017,07,05,02,41,12.60
2017,07,05,02,42,12.60
2017,07,05,02,43,12.50
2017,07,05,02,44,12.50
2017,07,05,02,45,12.50
2017,07,05,02,46,12.50
2017,07,05,02,47,12.50
2017,07,05,02,48,12.50
2017,07,05,02,49,12.50
2017,07,05,02,50,12.40
2017,07,05,02,51,12.40
2017,07,05,02,52,12.40
2017,07,05,02,53,12.40
2017,07,05,02,54,12.40
2017,07,05,02,55,12.30
2017,07,05,02,56,12.30
2017,07,05,02,57,12.30
2017,07,05,02,58,12.30
2017,07,05,02,59,12.30
2017,07,05,03,00,12.30
2017,07,05,03,01,12.20
2017,07,05,03,02,12.20
2017,07,05,03,03,12.20
2017,07,05,03,04,12.20
2017,07,05,03,05,12.20
2017,07,05,03,06,12.20
2017,07,05,03,07,12.20
2017,07,05,03,08,12.20
2017,07,05,03,09,12.20
2017,07,05,03,10,12.20
2017,07,05,03,11,12.20
2017,07,05,03,12,12.20
2017,07,05,03,13,12.20
2017,07,05,03,14,12.20
2017,07,05,03,15,12.20
2017,07,05,03,16,12.20
2017,07,05,03,17,12.20
2017,07,05,03,18,12.20
2017,07,05,03,19,12.20
2017,07,05,03,20,12.20
2017,07,05,03,21,12.20
2017,07,05,03,22,12.20
2017,07,05,03,23,12.20
2017,07,05,03,24,12.20
2017,07,05,03,25,12.20
2017,07,05,03,26,12.20
2017,07,05,03,27,12.20
2017,07,05,03,28,12.20
2017,07,05,03,29,12.20
2017,07,05,03,30,12.20
2017,07,05,03,31,12.20
2017,07,05,03,32,12.20
2017,07,05,03,33,12.10
2017,07,05,03,34,12.10
2017,07,05,03,35,12.10
2017,07,05,03,36,12.10
2017,07,05,03,37,12.10
2017,07,05,03,38,12.10
2017,07,05,03,39,12.00
2017,07,05,03,40,12.00
2017,07,05,03,41,12.00
2017,07,05,03,42,12.00
2017,07,05,03,43,11.90
2017,07,05,03,44,11.90
2017,07,05,03,45,11.90
2017,07,05,03,46,11.90
2017,07,05,03,47,11.90
2017,07,05,03,48,11.80
2017,07,05,03,49,11.80
2017,07,05,03,50,11.80
2017,07,05,03,51,11.80
2017,07,05,03,52,11.80
2017,07,05,03,53,11.80
2017,07,05,03,54,11.80
2017,07,05,03,55,11.80
2017,07,05,03,56,11.80
2017,07,05,03,57,11.80
2017,07,05,03,58,11.80
2017,07,05,03,59,11.80
2017,07,05,04,00,11.80
2017,07,05,04,01,11.80
2017,07,05,04,02,11.80
2017,07,05,04,03,11.80
2017,07,05,04,04,11.80
2017,07,05,04,05,11.80
2017,07,05,04,06,11.80
2017,07,05,04,07,11.80
2017,07,05,04,08,11.80
2017,07,05,04,09,11.80
2017,07,05,04,10,11.80
2017,07,05,04,11,11.80
2017,07,05,04,12,11.80
2017,07,05,04,13,11.80
2017,07,05,04,14,11.80
2017,07,05,04,15,11.80
2017,07,05,04,16,11.80
2017,07,05,04,17,11.80
2017,07,05,04,18,11.80
2017,07,05,04,19,11.80
2017,07,05,04,20,11.80
2017,07,05,04,21,11.80
2017,07,05,04,22,11.80
2017,07,05,04,23,11.80
2017,07,05,04,24,11.80
2017,07,05,04,25,11.80
2017,07,05,04,26,11.80
2017,07,05,04,27,11.80
2017,07,05,04,28,11.80
2017,07,05,04,29,11.70
2017,07,05,04,30,11.70
2017,07,05,04,31,11.70
2017,07,05,04,32,11.70
2017,07,05,04,33,11.70
2017,07,05,04,34,11.70
2017,07,05,04,35,11.70
2017,07,05,04,36,11.70
2017,07,05,04,37,11.70
2017,07,05,04,38,11.70
2017,07,05,04,39,11.60
2017,07,05,04,40,11.60
2017,07,05,04,41,11.60
2017,07,05,04,42,11.60
2017,07,05,04,43,11.60
2017,07,05,04,44,11.60
2017,07,05,04,45,11.60
2017,07,05,04,46,11.60
2017,07,05,04,47,11.60
2017,07,05,04,48,11.50
2017,07,05,04,49,11.50
2017,07,05,04,50,11.50
2017,07,05,04,51,11.50
2017,07,05,04,52,11.50
2017,07,05,04,53,11.50
2017,07,05,04,54,11.50
2017,07,05,04,55,11.50
2017,07,05,04,56,11.50
2017,07,05,04,57,11.50
2017,07,05,04,58,11.50
2017,07,05,04,59,11.50
2017,07,05,05,00,11.50
2017,07,05,05,01,11.50
2017,07,05,05,02,11.50
2017,07,05,05,03,11.50
2017,07,05,05,04,11.50
2017,07,05,05,05,11.40
2017,07,05,05,06,11.40
2017,07,05,05,07,11.40
2017,07,05,05,08,11.40
2017,07,05,05,09,11.40
2017,07,05,05,10,11.40
2017,07,05,05,11,11.40
2017,07,05,05,12,11.40
2017,07,05,05,13,11.40
2017,07,05,05,14,11.30
2017,07,05,05,15,11.30
2017,07,05,05,16,11.30
2017,07,05,05,17,11.30
2017,07,05,05,18,11.30
2017,07,05,05,19,11.30
2017,07,05,05,20,11.30
2017,07,05,05,21,11.20
2017,07,05,05,22,11.20
2017,07,05,05,23,11.20
2017,07,05,05,24,11.20
2017,07,05,05,25,11.20
2017,07,05,05,26,11.20
2017,07,05,05,27,11.10
2017,07,05,05,28,11.10
2017,07,05,05,29,11.10
2017,07,05,05,30,11.10
2017,07,05,05,31,11.10
2017,07,05,05,32,11.10
2017,07,05,05,33,11.00
2017,07,05,05,34,11.00
2017,07,05,05,35,11.00
2017,07,05,05,36,11.00
2017,07,05,05,37,10.90
2017,07,05,05,38,10.90
2017,07,05,05,39,10.90
2017,07,05,05,40,10.90
2017,07,05,05,41,10.90
2017,07,05,05,42,10.90
2017,07,05,05,43,10.90
2017,07,05,05,44,10.90
2017,07,05,05,45,10.90
2017,07,05,05,46,10.90
2017,07,05,05,47,10.90
2017,07,05,05,48,10.80
2017,07,05,05,49,10.80
2017,07,05,05,50,10.80
2017,07,05,05,51,10.80
2017,07,05,05,52,10.80
2017,07,05,05,53,10.80
2017,07,05,05,54,10.80
2017,07,05,05,55,10.80
2017,07,05,05,56,10.80
2017,07,05,05,57,10.80
2017,07,05,05,58,10.80
2017,07,05,05,59,10.80
2017,07,05,06,00,10.80
2017,07,05,06,01,10.90
2017,07,05,06,02,10.90
2017,07,05,06,03,10.90
2017,07,05,06,04,10.90
2017,07,05,06,05,10.90
2017,07,05,06,06,10.90
2017,07,05,06,07,10.90
2017,07,05,06,08,10.90
2017,07,05,06,09,10.90
2017,07,05,06,10,10.90
2017,07,05,06,11,10.90
2017,07,05,06,12,10.90
2017,07,05,06,13,11.00
2017,07,05,06,14,11.00
2017,07,05,06,15,11.00
2017,07,05,06,16,11.00
2017,07,05,06,17,11.10
2017,07,05,06,18,11.10
2017,07,05,06,19,11.10
2017,07,05,06,20,11.10
2017,07,05,06,21,11.10
2017,07,05,06,22,11.10
2017,07,05,06,23,11.10
2017,07,05,06,24,11.20
2017,07,05,06,25,11.20
2017,07,05,06,26,11.20
2017,07,05,06,27,11.20
2017,07,05,06,28,11.20
2017,07,05,06,29,11.20
2017,07,05,06,30,11.30
2017,07,05,06,31,11.30
2017,07,05,06,32,11.30
2017,07,05,06,33,11.30
2017,07,05,06,34,11.40
2017,07,05,06,35,11.40
2017,07,05,06,36,11.40
2017,07,05,06,37,11.50
2017,07,05,06,38,11.50
2017,07,05,06,39,11.60
2017,07,05,06,40,11.60
2017,07,05,06,41,11.60
2017,07,05,06,42,11.60
2017,07,05,06,43,11.60
2017,07,05,06,44,11.70
2017,07,05,06,45,11.70
2017,07,05,06,46,11.70
2017,07,05,06,47,11.80
2017,07,05,06,48,11.80
2017,07,05,06,49,11.90
2017,07,05,06,50,11.90
2017,07,05,06,51,12.00
2017,07,05,06,52,12.00
2017,07,05,06,53,12.10
2017,07,05,06,54,12.20
2017,07,05,06,55,12.20
2017,07,05,06,56,12.30
2017,07,05,06,57,12.40
2017,07,05,06,58,12.50
2017,07,05,06,59,12.60
2017,07,05,07,00,12.70
2017,07,05,07,01,12.70
2017,07,05,07,02,12.80
2017,07,05,07,03,12.90
2017,07,05,07,04,13.00
2017,07,05,07,05,13.00
2017,07,05,07,06,13.10
2017,07,05,07,07,13.20
2017,07,05,07,08,13.30
2017,07,05,07,09,13.40
2017,07,05,07,10,13.50
2017,07,05,07,11,13.70
2017,07,05,07,12,13.80
2017,07,05,07,13,13.90
2017,07,05,07,14,14.10
2017,07,05,07,15,14.20
2017,07,05,07,16,14.40
2017,07,05,07,17,14.60
2017,07,05,07,18,14.80
2017,07,05,07,19,15.00
2017,07,05,07,20,15.00
2017,07,05,07,21,15.20
2017,07,05,07,22,15.30
2017,07,05,07,23,15.50
2017,07,05,07,24,15.60
2017,07,05,07,25,15.70
2017,07,05,07,26,15.90
2017,07,05,07,27,16.00
2017,07,05,07,28,16.10
2017,07,05,07,29,16.10
2017,07,05,07,30,16.20
2017,07,05,07,31,16.30
2017,07,05,07,32,16.40
2017,07,05,07,33,16.50
2017,07,05,07,34,16.70
2017,07,05,07,35,16.80
2017,07,05,07,36,16.90
2017,07,05,07,37,17.00
2017,07,05,07,38,17.10
2017,07,05,07,39,17.30
2017,07,05,07,40,17.40
2017,07,05,07,41,17.50
2017,07,05,07,42,17.60
2017,07,05,07,43,17.70
2017,07,05,07,44,17.70
2017,07,05,07,45,17.70
2017,07,05,07,46,17.70
2017,07,05,07,47,17.80
2017,07,05,07,48,17.80
2017,07,05,07,49,17.90
2017,07,05,07,50,17.90
2017,07,05,07,51,17.90
2017,07,05,07,52,17.90
2017,07,05,07,53,17.90
2017,07,05,07,54,17.90
2017,07,05,07,55,17.90
2017,07,05,07,56,17.90
2017,07,05,07,57,18.00
2017,07,05,07,58,18.00
2017,07,05,07,59,18.10
2017,07,05,08,00,18.10
2017,07,05,08,01,18.20
2017,07,05,08,02,18.20
2017,07,05,08,03,18.30
2017,07,05,08,04,18.30
2017,07,05,08,05,18.40
2017,07,05,08,06,18.50
2017,07,05,08,07,18.60
2017,07,05,08,08,18.60
2017,07,05,08,09,18.70
2017,07,05,08,10,18.80
2017,07,05,08,11,18.80
2017,07,05,08,12,18.80
2017,07,05,08,13,18.80
2017,07,05,08,14,18.80
2017,07,05,08,15,18.90
2017,07,05,08,16,18.90
2017,07,05,08,17,18.90
2017,07,05,08,18,19.00
2017,07,05,08,19,19.00
2017,07,05,08,20,19.10
2017,07,05,08,21,19.20
2017,07,05,08,22,19.20
2017,07,05,08,23,19.30
2017,07,05,08,24,19.40
2017,07,05,08,25,19.40
2017,07,05,08,26,19.40
2017,07,05,08,27,19.50
2017,07,05,08,28,19.60
2017,07,05,08,29,19.70
2017,07,05,08,30,19.80
2017,07,05,08,31,19.90
2017,07,05,08,32,20.00
2017,07,05,08,33,20.00
2017,07,05,08,34,20.10
2017,07,05,08,35,20.10
2017,07,05,08,36,20.10
2017,07,05,08,37,20.20
2017,07,05,08,38,20.10
2017,07,05,08,39,20.10
2017,07,05,08,40,20.10
2017,07,05,08,41,20.10
2017,07,05,08,42,20.10
2017,07,05,08,43,20.10
2017,07,05,08,44,20.10
2017,07,05,08,45,20.10
2017,07,05,08,46,20.10
2017,07,05,08,47,20.10
2017,07,05,08,48,20.20
2017,07,05,08,49,20.20
2017,07,05,08,50,20.30
2017,07,05,08,51,20.40
2017,07,05,08,52,20.40
2017,07,05,08,53,20.40
2017,07,05,08,54,20.40
2017,07,05,08,55,20.50
2017,07,05,08,56,20.50
2017,07,05,08,57,20.60
2017,07,05,08,58,20.70
2017,07,05,08,59,20.80
2017,07,05,09,00,20.90
2017,07,05,09,01,21.00
2017,07,05,09,02,21.00
2017,07,05,09,03,21.10
2017,07,05,09,04,21.20
2017,07,05,09,05,21.20
2017,07,05,09,06,21.20
2017,07,05,09,07,21.30
2017,07,05,09,08,21.30
2017,07,05,09,09,21.30
2017,07,05,09,10,21.30
2017,07,05,09,11,21.30
2017,07,05,09,12,21.20
2017,07,05,09,13,21.20
2017,07,05,09,14,21.20
2017,07,05,09,15,21.20
2017,07,05,09,16,21.20
2017,07,05,09,17,21.20
2017,07,05,09,18,21.20
2017,07,05,09,19,21.20
2017,07,05,09,20,21.30
2017,07,05,09,21,21.30
2017,07,05,09,22,21.10
2017,07,05,09,23,21.10
2017,07,05,09,24,21.00
2017,07,05,09,25,20.90
2017,07,05,09,26,20.90
2017,07,05,09,27,20.80
2017,07,05,09,28,20.70
2017,07,05,09,29,20.80
2017,07,05,09,30,20.80
2017,07,05,09,31,20.90
2017,07,05,09,32,21.00
2017,07,05,09,33,21.10
2017,07,05,09,34,21.10
2017,07,05,09,35,21.30
2017,07,05,09,36,21.40
2017,07,05,09,37,21.50
2017,07,05,09,38,21.60
2017,07,05,09,39,21.60
2017,07,05,09,40,21.70
2017,07,05,09,41,21.80
2017,07,05,09,42,21.90
2017,07,05,09,43,21.90
2017,07,05,09,44,22.00
2017,07,05,09,45,21.90
2017,07,05,09,46,21.90
2017,07,05,09,47,21.90
2017,07,05,09,48,21.80
2017,07,05,09,49,21.80
2017,07,05,09,50,21.80
2017,07,05,09,51,21.80
2017,07,05,09,52,21.90
2017,07,05,09,53,21.90
2017,07,05,09,54,22.00
2017,07,05,09,55,22.00
2017,07,05,09,56,22.10
2017,07,05,09,57,22.20
2017,07,05,09,58,22.40
2017,07,05,09,59,22.40
2017,07,05,10,00,22.40
2017,07,05,10,01,22.40
2017,07,05,10,02,22.50
2017,07,05,10,03,22.50
2017,07,05,10,04,22.50
2017,07,05,10,05,22.50
2017,07,05,10,06,22.40
2017,07,05,10,07,22.40
2017,07,05,10,08,22.50
2017,07,05,10,09,22.60
2017,07,05,10,10,22.50
2017,07,05,10,11,22.50
2017,07,05,10,12,22.30
2017,07,05,10,13,22.30
2017,07,05,10,14,22.30
2017,07,05,10,15,22.30
2017,07,05,10,16,22.30
2017,07,05,10,17,22.40
2017,07,05,10,18,22.30
2017,07,05,10,19,22.30
2017,07,05,10,20,22.30
2017,07,05,10,21,22.40
2017,07,05,10,22,22.40
2017,07,05,10,23,22.50
2017,07,05,10,24,22.50
2017,07,05,10,25,22.60
2017,07,05,10,26,22.60
2017,07,05,10,27,22.60
2017,07,05,10,28,22.60
2017,07,05,10,29,22.60
2017,07,05,10,30,22.50
2017,07,05,10,31,22.50
2017,07,05,10,32,22.60
2017,07,05,10,33,22.60
2017,07,05,10,34,22.60
2017,07,05,10,35,22.80
2017,07,05,10,36,22.80
2017,07,05,10,37,22.90
2017,07,05,10,38,22.90
2017,07,05,10,39,23.00
2017,07,05,10,40,23.00
2017,07,05,10,41,23.00
2017,07,05,10,42,23.00
2017,07,05,10,43,23.00
2017,07,05,10,44,23.00
2017,07,05,10,45,23.10
2017,07,05,10,46,23.10
2017,07,05,10,47,23.10
2017,07,05,10,48,23.00
2017,07,05,10,49,22.90
2017,07,05,10,50,22.90
2017,07,05,10,51,22.80
2017,07,05,10,52,22.80
2017,07,05,10,53,22.80
2017,07,05,10,54,22.70
2017,07,05,10,55,22.70
2017,07,05,10,56,22.60
2017,07,05,10,57,22.60
2017,07,05,10,58,22.60
2017,07,05,10,59,22.60
2017,07,05,11,00,22.50
2017,07,05,11,01,22.40
2017,07,05,11,02,22.40
2017,07,05,11,03,22.40
2017,07,05,11,04,22.60
2017,07,05,11,05,22.60
2017,07,05,11,06,22.70
2017,07,05,11,07,22.60
2017,07,05,11,08,22.60
2017,07,05,11,09,22.60
2017,07,05,11,10,22.60
2017,07,05,11,11,22.60
2017,07,05,11,12,22.60
2017,07,05,11,13,22.60
2017,07,05,11,14,22.60
2017,07,05,11,15,22.70
2017,07,05,11,16,22.60
2017,07,05,11,17,22.60
2017,07,05,11,18,22.60
2017,07,05,11,19,22.60
2017,07,05,11,20,22.60
2017,07,05,11,21,22.70
2017,07,05,11,22,22.70
2017,07,05,11,23,22.80
2017,07,05,11,24,22.80
2017,07,05,11,25,22.70
2017,07,05,11,26,22.70
2017,07,05,11,27,22.70
2017,07,05,11,28,22.70
2017,07,05,11,29,22.80
2017,07,05,11,30,23.00
2017,07,05,11,31,23.20
2017,07,05,11,32,23.50
2017,07,05,11,33,23.80
2017,07,05,11,34,24.00
2017,07,05,11,35,24.20
2017,07,05,11,36,24.10
2017,07,05,11,37,24.00
2017,07,05,11,38,23.90
2017,07,05,11,39,23.80
2017,07,05,11,40,23.70
2017,07,05,11,41,23.70
2017,07,05,11,42,23.70
2017,07,05,11,43,23.80
2017,07,05,11,44,23.80
2017,07,05,11,45,23.70
2017,07,05,11,46,23.60
2017,07,05,11,47,23.60
2017,07,05,11,48,23.60
2017,07,05,11,49,23.70
2017,07,05,11,50,23.80
2017,07,05,11,51,23.90
2017,07,05,11,52,23.90
2017,07,05,11,53,23.90
2017,07,05,11,54,23.90
2017,07,05,11,55,23.90
2017,07,05,11,56,24.00
2017,07,05,11,57,24.10
2017,07,05,11,58,24.10
2017,07,05,11,59,24.10
2017,07,05,12,00,24.10
2017,07,05,12,01,24.10
2017,07,05,12,02,24.10
2017,07,05,12,03,24.20
2017,07,05,12,04,24.30
2017,07,05,12,05,24.30
2017,07,05,12,06,24.20
2017,07,05,12,07,24.20
2017,07,05,12,08,24.10
2017,07,05,12,09,24.00
2017,07,05,12,10,23.90
2017,07,05,12,11,23.90
2017,07,05,12,12,23.70
2017,07,05,12,13,23.60
2017,07,05,12,14,23.50
2017,07,05,12,15,23.50
2017,07,05,12,16,23.40
2017,07,05,12,17,23.40
2017,07,05,12,18,23.30
2017,07,05,12,19,23.30
2017,07,05,12,20,23.30
2017,07,05,12,21,23.20
2017,07,05,12,22,23.20
2017,07,05,12,23,23.10
2017,07,05,12,24,23.00
2017,07,05,12,25,23.00
2017,07,05,12,26,23.00
2017,07,05,12,27,23.10
2017,07,05,12,28,23.10
2017,07,05,12,29,23.20
2017,07,05,12,30,23.30
2017,07,05,12,31,23.30
2017,07,05,12,32,23.30
2017,07,05,12,33,23.30
2017,07,05,12,34,23.40
2017,07,05,12,35,23.60
2017,07,05,12,36,23.70
2017,07,05,12,37,23.80
2017,07,05,12,38,23.80
2017,07,05,12,39,23.80
2017,07,05,12,40,23.80
2017,07,05,12,41,23.60
2017,07,05,12,42,23.60
2017,07,05,12,43,23.60
2017,07,05,12,44,23.60
2017,07,05,12,45,23.60
2017,07,05,12,46,23.70
2017,07,05,12,47,23.80
2017,07,05,12,48,24.00
2017,07,05,12,49,24.10
2017,07,05,12,50,24.10
2017,07,05,12,51,24.10
2017,07,05,12,52,24.20
2017,07,05,12,53,24.20
2017,07,05,12,54,24.30
2017,07,05,12,55,24.40
2017,07,05,12,56,24.50
2017,07,05,12,57,24.50
2017,07,05,12,58,24.60
2017,07,05,12,59,24.60
2017,07,05,13,00,24.60
2017,07,05,13,01,24.70
2017,07,05,13,02,24.70
2017,07,05,13,03,24.60
2017,07,05,13,04,24.50
2017,07,05,13,05,24.50
2017,07,05,13,06,24.60
2017,07,05,13,07,24.70
2017,07,05,13,08,24.80
2017,07,05,13,09,25.00
2017,07,05,13,10,25.10
2017,07,05,13,11,25.30
2017,07,05,13,12,25.40
2017,07,05,13,13,25.30
2017,07,05,13,14,25.20
2017,07,05,13,15,25.20
2017,07,05,13,16,25.20
2017,07,05,13,17,25.30
2017,07,05,13,18,25.30
2017,07,05,13,19,25.30
2017,07,05,13,20,25.30
2017,07,05,13,21,25.20
2017,07,05,13,22,25.20
2017,07,05,13,23,25.10
2017,07,05,13,24,25.00
2017,07,05,13,25,24.90
2017,07,05,13,26,24.90
2017,07,05,13,27,24.80
2017,07,05,13,28,24.70
2017,07,05,13,29,24.60
2017,07,05,13,30,24.60
2017,07,05,13,31,24.60
2017,07,05,13,32,24.70
2017,07,05,13,33,24.90
2017,07,05,13,34,25.10
2017,07,05,13,35,25.30
2017,07,05,13,36,25.50
2017,07,05,13,37,25.60
2017,07,05,13,38,25.70
2017,07,05,13,39,25.70
2017,07,05,13,40,25.70
2017,07,05,13,41,25.80
2017,07,05,13,42,25.80
2017,07,05,13,43,25.80
2017,07,05,13,44,25.90
2017,07,05,13,45,25.90
2017,07,05,13,46,25.90
2017,07,05,13,47,25.90
2017,07,05,13,48,25.80
2017,07,05,13,49,25.70
2017,07,05,13,50,25.70
2017,07,05,13,51,25.80
2017,07,05,13,52,25.90
2017,07,05,13,53,26.00
2017,07,05,13,54,26.10
2017,07,05,13,55,26.10
2017,07,05,13,56,26.20
2017,07,05,13,57,26.30
2017,07,05,13,58,26.40
2017,07,05,13,59,26.40
2017,07,05,14,00,26.20
2017,07,05,14,01,26.20
2017,07,05,14,02,26.30
2017,07,05,14,03,26.30
2017,07,05,14,04,26.30
2017,07,05,14,05,26.30
2017,07,05,14,06,26.40
2017,07,05,14,07,26.40
2017,07,05,14,08,26.20
2017,07,05,14,09,26.00
2017,07,05,14,10,25.60
2017,07,05,14,11,25.30
2017,07,05,14,12,25.10
2017,07,05,14,13,25.00
2017,07,05,14,14,24.90
2017,07,05,14,15,24.90
2017,07,05,14,16,24.90
2017,07,05,14,17,24.90
2017,07,05,14,18,24.90
2017,07,05,14,19,24.90
2017,07,05,14,20,25.10
2017,07,05,14,21,25.20
2017,07,05,14,22,25.30
2017,07,05,14,23,25.40
2017,07,05,14,24,25.30
2017,07,05,14,25,25.40
2017,07,05,14,26,25.50
2017,07,05,14,27,25.60
2017,07,05,14,28,25.80
2017,07,05,14,29,25.80
2017,07,05,14,30,25.80
2017,07,05,14,31,25.80
2017,07,05,14,32,25.90
2017,07,05,14,33,26.00
2017,07,05,14,34,26.10
2017,07,05,14,35,26.30
2017,07,05,14,36,26.30
2017,07,05,14,37,26.20
2017,07,05,14,38,26.10
2017,07,05,14,39,26.10
2017,07,05,14,40,26.00
2017,07,05,14,41,26.00
2017,07,05,14,42,26.10
2017,07,05,14,43,26.20
2017,07,05,14,44,26.20
2017,07,05,14,45,26.30
2017,07,05,14,46,26.30
2017,07,05,14,47,26.30
2017,07,05,14,48,26.30
2017,07,05,14,49,26.30
2017,07,05,14,50,26.30
2017,07,05,14,51,26.40
2017,07,05,14,52,26.50
2017,07,05,14,53,26.50
2017,07,05,14,54,26.50
2017,07,05,14,55,26.40
2017,07,05,14,56,26.40
2017,07,05,14,57,26.40
2017,07,05,14,58,26.40
2017,07,05,14,59,26.50
2017,07,05,15,00,26.60
2017,07,05,15,01,26.50
2017,07,05,15,02,26.30
2017,07,05,15,03,26.30
2017,07,05,15,04,26.30
2017,07,05,15,05,26.20
2017,07,05,15,06,26.10
2017,07,05,15,07,26.10
2017,07,05,15,08,26.10
2017,07,05,15,09,26.20
2017,07,05,15,10,26.20
2017,07,05,15,11,26.20
2017,07,05,15,12,26.30
2017,07,05,15,13,26.40
2017,07,05,15,14,26.40
2017,07,05,15,15,26.40
2017,07,05,15,16,26.50
2017,07,05,15,17,26.50
2017,07,05,15,18,26.60
2017,07,05,15,19,26.70
2017,07,05,15,20,26.70
2017,07,05,15,21,26.80
2017,07,05,15,22,26.70
2017,07,05,15,23,26.70
2017,07,05,15,24,26.70
2017,07,05,15,25,26.80
2017,07,05,15,26,26.90
2017,07,05,15,27,27.00
2017,07,05,15,28,27.10
2017,07,05,15,29,27.10
2017,07,05,15,30,27.00
2017,07,05,15,31,27.00
2017,07,05,15,32,27.00
2017,07,05,15,33,27.10
2017,07,05,15,34,27.30
2017,07,05,15,35,27.40
2017,07,05,15,36,27.40
2017,07,05,15,37,27.30
2017,07,05,15,38,27.30
2017,07,05,15,39,27.20
2017,07,05,15,40,27.20
2017,07,05,15,41,27.20
2017,07,05,15,42,27.30
2017,07,05,15,43,27.40
2017,07,05,15,44,27.50
2017,07,05,15,45,27.50
2017,07,05,15,46,27.50
2017,07,05,15,47,27.60
2017,07,05,15,48,27.70
2017,07,05,15,49,27.50
2017,07,05,15,50,27.40
2017,07,05,15,51,27.40
2017,07,05,15,52,27.40
2017,07,05,15,53,27.40
2017,07,05,15,54,27.40
2017,07,05,15,55,27.30
2017,07,05,15,56,27.30
2017,07,05,15,57,27.40
2017,07,05,15,58,27.50
2017,07,05,15,59,27.50
2017,07,05,16,00,27.60
2017,07,05,16,01,27.70
2017,07,05,16,02,27.80
2017,07,05,16,03,27.80
2017,07,05,16,04,27.80
2017,07,05,16,05,27.70
2017,07,05,16,06,27.50
2017,07,05,16,07,27.40
2017,07,05,16,08,27.30
2017,07,05,16,09,27.20
2017,07,05,16,10,27.10
2017,07,05,16,11,27.00
2017,07,05,16,12,27.00
2017,07,05,16,13,27.00
2017,07,05,16,14,27.10
2017,07,05,16,15,27.10
2017,07,05,16,16,27.10
2017,07,05,16,17,27.20
2017,07,05,16,18,27.30
2017,07,05,16,19,27.30
2017,07,05,16,20,27.40
2017,07,05,16,21,27.40
2017,07,05,16,22,27.40
2017,07,05,16,23,27.50
2017,07,05,16,24,27.60
2017,07,05,16,25,27.70
2017,07,05,16,26,27.80
2017,07,05,16,27,27.90
2017,07,05,16,28,28.00
2017,07,05,16,29,28.10
2017,07,05,16,30,28.10
2017,07,05,16,31,28.20
2017,07,05,16,32,28.10
2017,07,05,16,33,28.00
2017,07,05,16,34,27.90
2017,07,05,16,35,27.90
2017,07,05,16,36,27.90
2017,07,05,16,37,27.90
2017,07,05,16,38,27.90
2017,07,05,16,39,27.80
2017,07,05,16,40,27.60
2017,07,05,16,41,27.60
2017,07,05,16,42,27.50
2017,07,05,16,43,27.40
2017,07,05,16,44,27.40
2017,07,05,16,45,27.30
2017,07,05,16,46,27.20
2017,07,05,16,47,27.20
2017,07,05,16,48,27.20
2017,07,05,16,49,27.10
2017,07,05,16,50,27.10
2017,07,05,16,51,27.00
2017,07,05,16,52,26.90
2017,07,05,16,53,26.70
2017,07,05,16,54,26.60
2017,07,05,16,55,26.40
2017,07,05,16,56,26.40
2017,07,05,16,57,26.40
2017,07,05,16,58,26.40
2017,07,05,16,59,26.50
2017,07,05,17,00,26.60
2017,07,05,17,01,26.70
2017,07,05,17,02,26.80
2017,07,05,17,03,26.90
2017,07,05,17,04,27.00
2017,07,05,17,05,27.20
2017,07,05,17,06,27.30
2017,07,05,17,07,27.40
2017,07,05,17,08,27.50
2017,07,05,17,09,27.50
2017,07,05,17,10,27.60
2017,07,05,17,11,27.70
2017,07,05,17,12,27.80
2017,07,05,17,13,27.90
2017,07,05,17,14,28.10
2017,07,05,17,15,28.20
2017,07,05,17,16,28.30
2017,07,05,17,17,28.40
2017,07,05,17,18,28.50
2017,07,05,17,19,28.60